FW8889 Weather Reports


time (UTC)temp
F
wind
direction
speed
knots
gust
knots
rain 1hr
in
rain 24hr
in
rain mn
in
humidity
%
barometer
mb
20260507211549 63 311 1.7 10.4 0.00 0.15 0.04 34 1005.9
20260507210053 64 127 0.9 4.3 0.00 0.15 0.04 32 1005.9
20260507204551 64 58 1.7 8.7 0.00 0.22 0.04 31 1006.0
20260507203051 64 244 1.7 7.0 0.00 0.22 0.04 33 1005.9
20260507201556 64 142 0.9 9.6 0.00 0.22 0.04 30 1005.7
20260507200047 64 46 0.9 7.0 0.00 0.22 0.04 29 1005.9
20260507194549 65 264 1.7 7.0 0.00 0.25 0.04 29 1006.1
20260507193053 65 296 1.7 7.8 0.00 0.25 0.04 32 1006.2
20260507191555 65 0 0.9 5.2 0.00 0.25 0.04 37 1006.2
20260507190055 65 142 0.9 11.3 0.00 0.25 0.04 35 1006.5
20260507184602 64 49 1.7 7.8 0.00 0.25 0.04 36 1006.5
20260507183051 64 0 1.7 7.0 0.00 0.25 0.04 30 1006.5
20260507181600 63 155 1.7 7.8 0.00 0.25 0.04 30 1006.7
20260507180050 64 325 1.7 6.1 0.00 0.25 0.04 34 1006.8
20260507174550 64 281 1.7 7.0 0.00 0.25 0.04 36 1006.7
20260507173050 63 147 0.9 6.1 0.00 0.25 0.04 40 1006.7
20260507171555 62 223 0.9 7.8 0.00 0.25 0.04 44 1006.9
20260507170052 62 239 2.6 7.0 0.00 0.25 0.04 44 1007.0
20260507164550 62 195 1.7 5.2 0.00 0.25 0.04 43 1007.1
20260507163048 61 310 1.7 6.1 0.00 0.25 0.04 50 1007.2
20260507161550 59 182 0.0 3.5 0.00 0.25 0.04 59 1007.4
20260507160047 58 162 1.7 4.3 0.00 0.25 0.04 55 1007.6
20260507154550 59 360 0.9 5.2 0.00 0.25 0.04 60 1007.7
20260507153051 59 195 1.7 7.8 0.00 0.25 0.04 54 1007.7
20260507151556 59 0 0.0 3.5 0.00 0.25 0.04 55 1007.9
20260507150047 59 158 1.7 4.3 0.00 0.25 0.04 53 1008.2
20260507144555 58 109 0.9 4.3 0.00 0.25 0.04 51 1008.3
20260507143048 57 90 0.9 5.2 0.00 0.25 0.04 54 1008.2
20260507141549 57 0 0.9 5.2 0.00 0.25 0.04 57 1008.2
20260507140052 55 32 0.9 4.3 0.00 0.25 0.04 59 1008.1
20260507134555 55 13 0.0 3.5 0.00 0.25 0.04 60 1008.3
20260507133056 54 0 0.9 6.1 0.00 0.25 0.04 62 1008.5
20260507131559 54 28 0.9 4.3 0.00 0.25 0.04 65 1008.6
20260507130105 53 118 1.7 8.7 0.00 0.25 0.04 65 1008.8
20260507124553 52 236 0.9 5.2 0.00 0.25 0.04 70 1008.7
20260507123052 51 252 0.0 6.1 0.00 0.25 0.04 73 1008.8
20260507121604 51 342 0.0 7.0 0.00 0.25 0.04 76 1008.8
20260507120050 50 142 0.0 4.3 0.00 0.25 0.04 75 1008.9
20260507114601 50 42 0.9 3.5 0.00 0.25 0.04 78 1008.8
20260507113051 49 0 0.0 1.7 0.00 0.25 0.04 78 1008.8
20260507111550 49 0 0.0 1.7 0.00 0.25 0.04 81 1008.2
20260507110050 48 0 0.0 1.7 0.00 0.25 0.04 80 1008.8
20260507104548 49 0 0.0 1.7 0.00 0.25 0.04 84 1008.3
20260507103047 49 0 0.0 3.5 0.00 0.25 0.04 84 1007.9
20260507101552 49 0 0.9 4.3 0.00 0.25 0.04 85 1008.2
20260507100053 49 0 0.0 2.6 0.00 0.25 0.04 86 1007.7
20260507094549 49 0 0.0 2.6 0.00 0.25 0.04 85 1008.0
20260507093054 49 0 0.0 1.7 0.00 0.25 0.04 84 1007.9
20260507091549 49 179 0.0 2.6 0.00 0.25 0.04 84 1008.2
20260507090046 49 0 0.0 3.5 0.00 0.25 0.04 82 1008.1
20260507084551 49 29 1.7 7.8 0.01 0.25 0.04 81 1007.7
20260507083049 50 59 0.0 1.7 0.01 0.25 0.04 86 1007.7
20260507081551 50 0 0.0 2.6 0.01 0.25 0.04 86 1007.8
20260507080050 51 0 0.9 7.8 0.01 0.25 0.04 85 1008.1
20260507074600 51 129 0.9 3.5 0.00 0.24 0.03 85 1008.1
20260507073043 51 39 0.0 2.6 0.00 0.24 0.03 86 1007.5
20260507071550 51 0 0.0 4.3 0.00 0.24 0.03 85 1007.4
20260507070048 51 0 0.0 3.5 0.00 0.24 0.03 85 1007.1
20260507064548 51 0 0.0 1.7 0.00 0.24 0.03 84 1007.2
20260507063049 51 305 0.0 2.6 0.00 0.24 0.03 84 1007.0
20260507061545 51 61 0.9 3.5 0.00 0.24 0.03 84 1007.0
20260507060043 52 36 0.0 7.0 0.00 0.24 0.03 84 1007.1
20260507054623 53 340 0.0 5.2 0.00 0.24 0.03 86 1007.5
20260507053052 53 350 0.9 3.5 0.00 0.24 0.03 87 1007.1
20260507051549 54 340 0.0 3.5 0.02 0.24 0.03 87 1007.5
20260507050055 54 0 0.0 4.3 0.03 0.24 0.03 87 1007.6
20260507044553 56 275 0.9 4.3 0.03 0.24 0.03 87 1007.3
20260507043054 57 0 0.9 4.3 0.03 0.24 0.03 87 1007.0
20260507041556 58 344 0.9 3.5 0.01 0.22 0.01 87 1007.3
20260507040050 58 114 0.0 3.5 0.00 0.21 0.00 86 1007.1
20260507034555 59 75 0.0 2.6 0.00 0.21 0.21 86 1006.6
20260507033056 59 70 0.0 2.6 0.00 0.21 0.21 86 1006.5
20260507031604 59 242 1.7 7.0 0.00 0.21 0.21 86 1006.2
20260507030054 59 137 0.0 2.6 0.00 0.21 0.21 86 1006.1
20260507024552 59 204 0.0 3.5 0.00 0.21 0.21 86 1006.1
20260507023059 59 0 0.9 4.3 0.00 0.21 0.21 86 1006.2
20260507021550 59 0 0.0 3.5 0.00 0.21 0.21 86 1006.1
20260507020055 59 160 0.9 4.3 0.00 0.21 0.21 86 1006.2
20260507014551 59 281 0.9 5.2 0.00 0.21 0.21 86 1006.5
20260507013046 59 0 0.9 4.3 0.00 0.21 0.21 86 1006.5
20260507011549 59 132 0.0 3.5 0.00 0.21 0.21 86 1006.5
20260507010050 59 0 0.9 3.5 0.01 0.21 0.21 86 1006.5
20260507004551 59 158 0.9 2.6 0.01 0.21 0.21 86 1006.5
20260507003052 59 261 0.9 5.2 0.02 0.21 0.21 86 1006.6
20260507001555 59 0 0.9 4.3 0.07 0.21 0.21 86 1006.4
20260507000044 59 40 0.0 3.5 0.06 0.20 0.20 86 1006.2
20260506234549 59 263 0.0 3.5 0.06 0.20 0.20 86 1006.3
20260506233102 60 0 0.9 3.5 0.06 0.19 0.19 86 1006.2
20260506231546 60 246 0.9 4.3 0.01 0.14 0.14 86 1006.4
20260506230051 60 309 0.9 4.3 0.01 0.14 0.14 86 1006.6
20260506224548 60 163 1.7 4.3 0.01 0.14 0.14 86 1006.6
20260506223049 60 311 0.9 6.1 0.01 0.13 0.13 86 1006.6
20260506221548 60 136 0.9 5.2 0.02 0.13 0.13 86 1006.6
20260506220051 60 306 0.9 4.3 0.03 0.13 0.13 86 1006.6
20260506214552 60 155 0.9 6.1 0.04 0.13 0.13 86 1006.8
20260506213107 60 294 0.0 3.5 0.05 0.12 0.12 86 1007.2